Date,TemperatureHighF,TemperatureAvgF,TemperatureLowF,DewpointHighF,DewpointAvgF,DewpointLowF,HumidityHigh,HumidityAvg,HumidityLow,PressureMaxIn,PressureMinIn,WindSpeedMaxMPH,WindSpeedAvgMPH,GustSpeedMaxMPH,PrecipitationSumIn
2013-1-1,38,32,20,25,17,6,67,53,40,0.00,40.00,12,5,28,0.00
2013-1-2,33,22,11,14,8,2,66,54,44,0.00,40.00,10,4,22,0.00
2013-1-3,28,15,4,9,-2,-7,68,47,24,0.00,40.00,8,3,16,0.00
2013-1-4,40,27,11,23,17,7,88,65,45,0.00,40.00,12,3,21,0.00
2013-1-5,43,33,22,23,20,17,85,60,39,0.00,40.00,8,3,20,0.00
2013-1-6,45,34,22,28,26,18,86,72,50,0.00,40.00,8,3,18,0.00
2013-1-7,42,32,22,29,22,16,92,69,40,0.00,40.00,6,1,13,0.00
2013-1-8,48,35,20,28,25,19,95,70,45,0.00,40.00,9,3,25,0.00
2013-1-9,45,36,24,35,28,22,95,76,53,0.00,40.00,9,3,20,0.00
2013-1-10,49,41,32,31,23,21,65,49,35,0.00,40.00,12,5,31,0.00
2013-1-11,41,33,25,36,27,21,96,80,58,0.00,40.00,3,1,8,0.00
2013-1-12,44,40,37,43,40,36,99,98,96,0.00,40.00,3,1,6,0.00
2013-1-13,53,46,41,49,45,41,100,97,92,0.00,40.00,8,2,15,0.00
2013-1-14,63,53,43,52,45,-100,96,79,40,0.00,40.00,12,5,21,0.00
2013-1-15,43,40,33,29,25,23,73,55,48,0.00,40.00,3,2,10,0.00
2013-1-16,35,33,30,33,29,22,98,88,61,0.00,40.00,2,1,7,0.00
2013-1-17,43,36,31,33,28,15,97,73,49,0.00,40.00,8,3,20,0.00
2013-1-18,29,23,18,13,0,-6,51,36,24,0.00,40.00,9,3,22,0.00
2013-1-19,49,34,20,30,19,5,70,52,36,0.00,40.00,13,6,27,0.00
2013-1-20,54,42,30,32,25,8,69,51,36,0.00,40.00,15,7,30,0.00
2013-1-21,30,26,22,21,8,3,90,48,33,0.00,40.00,8,4,30,0.00
2013-1-22,26,20,13,20,6,-3,91,58,31,0.00,40.00,10,4,22,0.00
2013-1-23,18,12,7,-1,-8,-13,59,40,25,0.00,40.00,13,5,25,0.00
2013-1-24,21,10,3,-8,-11,-12,50,39,24,0.00,40.00,10,5,23,0.00
2013-1-25,25,16,8,12,-8,-12,80,34,20,0.00,40.00,9,4,18,0.00
2013-1-26,28,18,10,13,3,-9,88,57,27,0.00,40.00,8,2,23,0.00
2013-1-27,15,13,11,2,0,-2,61,56,47,0.00,40.00,7,3,16,0.00
2013-1-28,32,27,26,27,18,4,95,73,31,0.00,40.00,7,2,14,0.00
2013-1-29,35,31,26,32,28,24,96,90,84,0.00,40.00,2,1,6,0.00
2013-1-30,62,48,33,58,47,33,99,95,82,0.00,40.00,14,6,31,0.00
2013-1-31,58,43,33,54,23,14,88,47,34,0.00,40.00,14,8,31,0.00
2013-2-1,36,30,24,15,8,2,53,40,27,0.00,40.00,10,6,25,0.00
2013-2-2,31,25,17,11,6,1,56,43,33,0.00,40.00,9,4,17,0.00
2013-2-3,28,25,22,22,19,10,89,79,49,0.00,40.00,7,2,13,0.00
2013-2-4,31,25,20,21,11,4,91,59,34,0.00,40.00,10,4,25,0.00
2013-2-5,29,25,21,23,12,7,90,59,47,0.00,40.00,5,2,12,0.00
2013-2-6,40,31,25,25,19,4,93,65,37,0.00,40.00,8,3,23,0.00
2013-2-7,33,25,16,13,4,-1,65,41,25,0.00,40.00,6,2,15,0.00
2013-2-8,33,29,19,31,25,13,99,86,56,0.00,40.00,10,3,46,0.00
2013-2-9,28,19,13,27,17,7,97,91,75,0.00,40.00,9,5,27,0.00
2013-2-10,43,30,12,16,8,4,83,45,20,0.00,40.00,6,2,12,0.00
2013-2-11,45,31,14,44,29,11,100,91,72,0.00,40.00,7,2,13,0.00
2013-2-12,45,38,31,39,29,24,99,71,49,0.00,40.00,9,4,21,0.00
2013-2-13,44,33,25,27,24,20,92,71,45,0.00,40.00,5,2,13,0.00
2013-2-14,46,37,29,27,22,19,79,57,35,0.00,40.00,6,2,13,0.00
2013-2-15,53,33,27,35,25,22,94,73,45,0.00,40.00,13,3,20,0.00
2013-2-16,38,34,30,33,29,19,96,83,54,0.00,40.00,5,2,12,0.00
2013-2-17,31,22,18,21,16,-1,91,77,41,0.00,40.00,15,5,27,0.00
2013-2-18,33,25,15,1,-1,-3,47,33,24,0.00,40.00,13,4,31,0.00
2013-2-19,48,36,23,43,21,1,99,56,36,0.00,40.00,9,4,16,0.00
2013-2-20,38,30,26,37,12,9,97,47,36,0.00,40.00,12,7,30,0.00
2013-2-21,36,28,25,14,12,9,63,51,37,0.00,40.00,10,5,27,0.00
2013-2-22,40,34,28,24,20,18,68,59,41,0.00,40.00,3,2,9,0.00
2013-2-23,39,34,29,31,28,25,95,81,65,0.00,40.00,5,2,10,0.00
2013-2-24,36,33,31,36,32,31,99,97,96,0.00,40.00,7,2,25,0.00
2013-2-25,38,31,29,33,30,29,98,97,77,0.00,40.00,1,0,3,0.00
2013-2-26,45,36,26,34,29,25,96,78,50,0.00,40.00,3,1,12,0.00
2013-2-27,41,39,37,40,38,32,99,96,82,0.00,40.00,10,4,21,0.00
2013-2-28,47,36,34,38,35,34,99,97,69,0.00,40.00,3,2,12,0.00
2013-3-1,42,39,33,35,29,27,95,70,56,0.00,40.00,7,2,15,0.00
2013-3-2,45,38,32,28,26,25,75,63,47,0.00,40.00,5,2,12,0.00
2013-3-3,47,37,33,32,28,24,92,71,53,0.00,40.00,7,2,13,0.00
2013-3-4,41,35,30,29,23,20,83,62,45,0.00,40.00,12,6,23,0.00
2013-3-5,46,35,32,30,23,21,75,62,48,0.00,40.00,8,3,20,0.00
2013-3-6,38,35,34,36,33,30,93,89,81,0.00,40.00,8,5,28,0.00
2013-3-7,36,33,30,32,30,28,96,90,74,0.00,40.00,12,6,27,0.00
2013-3-8,36,31,30,32,30,25,98,95,75,0.00,40.00,10,5,27,0.00
2013-3-9,48,34,26,30,25,20,94,71,44,0.00,40.00,5,1,12,0.00
2013-3-10,44,34,21,34,28,20,97,81,57,0.00,40.00,5,2,14,0.00
2013-3-11,54,44,35,41,38,31,91,82,55,0.00,40.00,8,5,15,0.00
2013-3-12,58,50,42,54,47,40,97,92,74,0.00,40.00,15,6,30,0.00
2013-3-13,53,43,32,52,33,19,97,69,37,0.00,40.00,9,3,20,0.00
2013-3-14,36,34,27,23,17,8,66,52,35,0.00,40.00,10,4,25,0.00
2013-3-15,42,36,21,26,17,5,69,48,24,0.00,40.00,8,5,18,0.00
2013-3-16,40,34,27,26,16,4,77,50,22,0.00,40.00,7,2,15,0.00
2013-3-17,41,32,21,17,9,3,72,40,21,0.00,40.00,8,3,22,0.00
2013-3-18,40,27,17,20,4,0,55,38,23,0.00,40.00,6,2,10,0.00
2013-3-19,34,32,29,33,31,28,99,97,95,0.00,40.00,7,1,20,0.00
2013-3-20,39,31,23,29,20,16,96,67,39,0.00,40.00,10,4,24,0.00
2013-3-21,38,28,20,29,21,16,93,77,45,0.00,40.00,6,1,9,0.00
2013-3-22,42,34,28,27,18,14,92,54,34,0.00,40.00,13,4,22,0.00
2013-3-23,41,31,28,23,20,17,70,62,38,0.00,40.00,7,4,27,0.00
2013-3-24,35,35,35,19,19,19,52,52,52,0.00,40.00,5,5,15,0.00
2013-3-25,41,36,31,30,28,27,85,75,65,0.00,40.00,7,4,15,0.00
2013-3-26,52,42,35,30,24,18,74,50,28,0.00,40.00,8,3,15,0.00
2013-3-27,55,43,28,29,23,20,75,47,28,0.00,40.00,8,3,21,0.00
2013-3-28,50,43,37,35,33,28,91,69,44,0.00,40.00,6,2,13,0.00
2013-3-29,60,47,34,34,31,26,85,57,28,0.00,40.00,10,2,17,0.00
2013-3-30,57,43,36,32,30,14,74,62,19,0.00,40.00,5,2,13,0.00
2013-3-31,58,51,27,33,26,24,85,42,26,0.00,40.00,9,5,18,0.00
2013-4-1,47,44,42,43,36,28,87,72,57,0.00,40.00,3,2,17,0.00
2013-4-2,41,35,30,17,12,8,52,39,27,0.00,40.00,10,6,25,0.00
2013-4-3,47,37,31,18,12,7,59,37,21,0.00,40.00,13,7,30,0.00
2013-4-4,58,42,29,24,15,8,54,36,15,0.00,40.00,10,5,20,0.00
2013-4-5,62,42,38,30,28,20,69,59,21,0.00,40.00,10,5,20,0.00
2013-4-6,36,36,36,16,16,16,43,43,43,0.00,40.00,5,5,20,0.00
2013-4-7,49,41,27,37,29,17,66,63,60,0.00,40.00,8,5,17,0.00
2013-4-8,47,46,45,42,42,41,90,85,82,0.00,40.00,6,4,15,0.00
2013-4-9,54,54,54,50,50,50,88,88,88,0.00,40.00,3,3,9,0.00
2013-4-10,66,51,46,48,46,44,95,83,52,0.00,40.00,1,1,6,0.00
2013-4-12,40,39,38,38,34,31,97,84,70,0.00,40.00,5,4,13,0.00
2013-4-13,53,46,45,41,40,35,83,78,49,0.00,40.00,5,2,13,0.00
2013-4-14,53,45,37,41,32,25,96,63,36,0.00,40.00,8,3,22,0.00
2013-4-15,59,44,31,37,31,27,87,64,32,0.00,40.00,6,2,15,0.00
2013-4-16,65,53,36,50,42,35,96,69,46,0.00,40.00,16,8,28,0.00
2013-4-17,70,58,49,53,40,27,86,55,21,0.00,40.00,9,4,24,0.00
2013-4-18,66,51,36,44,34,27,86,57,28,0.00,40.00,12,5,22,0.00
2013-4-19,76,62,53,63,56,43,97,81,60,0.00,40.00,18,8,36,0.00
2013-4-20,63,55,45,62,31,24,97,41,34,0.00,40.00,9,5,21,0.00
2013-4-21,45,40,35,24,21,19,52,46,41,0.00,40.00,7,4,16,0.00
2013-4-22,30,30,30,28,28,28,92,92,92,0.00,40.00,1,1,2,0.00
2013-4-23,43,42,40,42,40,31,97,96,68,0.00,40.00,7,4,16,0.00
2013-4-24,78,57,41,52,45,38,98,70,25,0.00,40.00,12,5,27,0.00
2013-4-25,66,56,44,53,37,24,95,54,21,0.00,40.00,12,4,20,0.00
2013-4-26,60,46,35,37,32,28,84,61,41,0.00,40.00,6,2,14,0.00
2013-4-27,66,57,37,41,36,34,97,48,31,0.00,40.00,7,4,15,0.00
2013-4-28,71,57,36,41,34,-100,96,48,26,0.00,40.00,13,4,21,0.00
2013-4-29,71,58,44,45,36,24,92,51,23,0.00,40.00,10,4,20,0.00
2013-4-30,70,57,42,38,30,18,81,41,16,0.00,40.00,7,2,13,0.00
2013-5-1,70,54,36,39,34,29,91,52,23,0.00,40.00,6,1,13,0.00
2013-5-2,79,56,41,56,42,36,95,64,25,0.00,40.00,6,2,15,0.00
2013-5-3,61,50,43,45,41,38,90,71,49,0.00,40.00,6,2,14,0.00
2013-5-4,60,48,37,46,40,36,98,75,47,0.00,40.00,5,1,15,0.00
2013-5-5,61,47,34,43,38,33,99,75,47,0.00,40.00,6,1,13,0.00
2013-5-6,71,52,36,51,44,35,99,79,42,0.00,40.00,6,2,12,0.00
2013-5-7,80,62,43,59,51,42,98,71,41,0.00,40.00,8,3,15,0.00
2013-5-8,74,63,51,66,57,-100,99,85,58,0.00,40.00,10,2,24,0.00
2013-5-9,69,60,58,63,59,57,100,97,72,0.00,40.00,2,1,7,0.00
2013-5-10,76,59,54,60,57,53,100,95,54,0.00,40.00,6,1,8,0.00
2013-5-11,64,64,64,55,55,55,72,72,72,0.00,40.00,3,3,7,0.00
2013-5-12,62,62,62,59,59,59,92,92,92,0.00,40.00,2,2,6,0.00
2013-5-13,59,59,59,29,29,29,32,32,32,0.00,40.00,3,3,14,0.00
2013-5-14,61,55,44,33,30,27,65,38,30,0.00,40.00,7,3,20,0.00
2013-5-15,67,52,36,52,39,30,93,67,30,0.00,40.00,12,4,21,0.00
2013-5-16,82,61,48,52,25,-100,99,51,19,0.00,40.00,10,3,27,0.00
2013-5-17,71,60,48,46,38,-100,83,52,31,0.00,40.00,5,2,15,0.00
2013-5-18,74,60,44,49,44,36,97,60,26,0.00,40.00,7,2,17,0.00
2013-5-19,67,54,47,55,48,45,97,82,55,0.00,40.00,5,1,10,0.00
2013-5-20,80,69,63,63,62,61,93,81,56,0.00,40.00,5,4,10,0.00
2013-5-21,83,65,52,68,58,51,99,79,58,0.00,40.00,3,2,12,0.00
2013-5-22,69,57,51,62,54,50,99,91,73,0.00,40.00,6,2,13,0.00
2013-5-23,77,65,55,69,62,54,100,90,71,0.00,40.00,13,4,24,0.00
2013-5-24,73,64,50,68,62,49,99,95,80,0.00,40.00,8,3,18,0.00
2013-5-25,53,48,42,51,48,40,99,97,93,0.00,40.00,6,2,17,0.00
2013-5-26,61,50,40,43,39,37,95,70,45,0.00,40.00,8,3,23,0.00
2013-5-27,72,57,40,46,39,32,97,58,23,0.00,40.00,8,2,20,0.00
2013-5-28,76,60,42,53,46,39,99,66,27,0.00,40.00,6,1,12,0.00
2013-5-29,63,60,58,61,58,51,100,93,75,0.00,40.00,6,2,10,0.00
2013-5-30,88,80,63,70,67,63,100,67,49,0.00,40.00,7,3,16,0.00
2013-5-31,93,93,93,65,65,65,41,41,41,0.00,40.00,5,5,14,0.00
2013-6-2,90,80,69,70,67,63,89,65,41,0.00,40.00,15,7,31,0.00
2013-6-3,77,70,66,68,64,60,88,80,70,0.00,40.00,12,6,12,0.00
2013-6-4,72,62,53,60,44,36,80,53,36,0.00,40.00,16,9,16,0.00
2013-6-5,77,63,48,51,45,33,89,55,39,0.00,40.00,12,5,12,0.00
2013-6-6,74,63,50,52,47,38,96,59,38,0.00,40.00,15,6,15,0.00
2013-6-7,60,57,54,57,53,36,100,90,48,0.00,40.00,16,9,16,0.00
2013-6-8,79,64,52,66,58,51,100,81,59,0.00,40.00,14,4,17,0.00
2013-6-9,81,69,56,59,56,53,99,67,41,0.00,40.00,7,2,15,0.00
2013-6-10,78,65,54,73,60,54,99,86,60,0.00,40.00,12,1,12,0.00
2013-6-11,67,62,57,65,60,56,100,95,90,0.00,40.00,17,9,13,0.00
2013-6-12,70,61,53,61,57,52,100,87,72,0.00,40.00,21,9,21,0.00
2013-6-13,68,62,50,61,57,49,98,84,72,0.00,40.00,14,5,14,0.00
2013-6-14,71,62,50,59,52,49,100,74,51,0.00,40.00,15,8,15,0.00
2013-6-15,80,66,52,54,49,38,100,59,31,0.00,40.00,15,8,15,0.00
2013-6-16,83,67,52,62,53,37,90,64,39,0.00,40.00,16,8,16,0.00
2013-6-17,84,71,58,73,60,53,100,71,38,0.00,40.00,20,9,20,0.00
2013-6-18,78,67,57,75,64,56,100,90,63,0.00,40.00,8,2,8,0.00
2013-6-19,75,67,56,66,56,40,100,71,47,0.00,40.00,9,3,9,0.00
2013-6-20,77,60,51,61,51,37,100,77,55,0.00,40.00,8,2,8,0.00
2013-6-22,85,79,69,65,61,57,66,55,43,0.00,40.00,7,4,20,0.00
2013-6-23,90,77,65,73,65,57,79,66,54,0.00,40.00,8,4,20,0.00
2013-6-24,78,74,71,71,69,68,95,87,79,0.00,40.00,5,2,16,0.00